Previsão horária em Abilene

Hoje, 12 Abril, Segunda-feira

Tempo Temperatura Precipitação Vento Pressão Humidade
00:00 +20°C° 0 mm 4 m/s 707 mmHg 26%
01:00 +20°C° 0 mm 5 m/s 707 mmHg 38%
02:00 +21°C° 0 mm 6 m/s 707 mmHg 50%
03:00 +19°C° 0 mm 5 m/s 708 mmHg 54%
04:00 +18°C° 0 mm 4 m/s 708 mmHg 57%
05:00 +18°C° 0 mm 4 m/s 709 mmHg 66%
06:00 +16°C° 0 mm 5 m/s 710 mmHg 63%
07:00 +16°C° 0 mm 5 m/s 711 mmHg 60%
08:00 +16°C° 0 mm 6 m/s 711 mmHg 57%
09:00 +17°C° 0 mm 6 m/s 712 mmHg 54%
10:00 +20°C° 0 mm 5 m/s 712 mmHg 50%
11:00 +21°C° 0 mm 4 m/s 712 mmHg 47%
12:00 +22°C° 0 mm 5 m/s 712 mmHg 44%
13:00 +23°C° 0 mm 5 m/s 712 mmHg 42%
14:00 +23°C° 0 mm 6 m/s 712 mmHg 39%
15:00 +22°C° 0 mm 6 m/s 712 mmHg 41%
16:00 +21°C° 0 mm 7 m/s 712 mmHg 43%
17:00 +20°C° 0 mm 7 m/s 712 mmHg 44%
18:00 +18°C° 0.1 mm 7 m/s 713 mmHg 49%
19:00 +16°C° 0.1 mm 6 m/s 714 mmHg 54%
20:00 +15°C° 0.1 mm 6 m/s 715 mmHg 58%
21:00 +13°C° 0 mm 6 m/s 715 mmHg 61%
22:00 +11°C° 0 mm 6 m/s 715 mmHg 63%
23:00 +10°C° 0 mm 6 m/s 715 mmHg 65%

Amanhã, 13 Abril, Terça-feira

Tempo Temperatura Precipitação Vento Pressão Humidade
00:00 +10°C° 0 mm 6 m/s 715 mmHg 65%
01:00 +9°C° 0 mm 5 m/s 715 mmHg 66%
02:00 +8°C° 0 mm 5 m/s 716 mmHg 67%
03:00 +9°C° 0 mm 5 m/s 716 mmHg 65%
04:00 +9°C° 0 mm 6 m/s 716 mmHg 62%
05:00 +9°C° 0 mm 6 m/s 716 mmHg 60%
06:00 +9°C° 0.1 mm 6 m/s 717 mmHg 60%
07:00 +9°C° 0.1 mm 6 m/s 717 mmHg 60%
08:00 +10°C° 0.1 mm 6 m/s 718 mmHg 60%
09:00 +12°C° 0.2 mm 5 m/s 718 mmHg 59%
10:00 +13°C° 0.2 mm 5 m/s 718 mmHg 58%
11:00 +14°C° 0.2 mm 4 m/s 717 mmHg 58%
12:00 +15°C° 0.2 mm 4 m/s 717 mmHg 57%
13:00 +17°C° 0.2 mm 3 m/s 716 mmHg 56%
14:00 +18°C° 0.2 mm 3 m/s 716 mmHg 55%
15:00 +18°C° 0.3 mm 2 m/s 716 mmHg 60%
16:00 +18°C° 0.3 mm 2 m/s 715 mmHg 64%
17:00 +18°C° 0.3 mm 2 m/s 715 mmHg 68%
18:00 +17°C° 0 mm 2 m/s 715 mmHg 71%
19:00 +18°C° 0 mm 1 m/s 715 mmHg 74%
20:00 +16°C° 0 mm 1 m/s 716 mmHg 78%
21:00 +16°C° 0 mm 2 m/s 715 mmHg 81%
22:00 +16°C° 0 mm 3 m/s 715 mmHg 84%
23:00 +15°C° 0 mm 4 m/s 715 mmHg 88%

Depois de amanhã, 14 Abril, Quarta-feira

Tempo Temperatura Precipitação Vento Pressão Humidade
00:00 +14°C° 0 mm 4 m/s 715 mmHg 90%
01:00 +14°C° 0 mm 4 m/s 715 mmHg 92%
02:00 +13°C° 0 mm 4 m/s 715 mmHg 94%
03:00 +13°C° 0 mm 4 m/s 715 mmHg 94%
04:00 +13°C° 0 mm 3 m/s 715 mmHg 94%
05:00 +12°C° 0 mm 3 m/s 715 mmHg 94%
06:00 +12°C° 0.1 mm 4 m/s 716 mmHg 94%
07:00 +12°C° 0.1 mm 4 m/s 716 mmHg 93%
08:00 +12°C° 0.1 mm 4 m/s 716 mmHg 93%
09:00 +12°C° 0.2 mm 4 m/s 716 mmHg 93%
10:00 +12°C° 0.2 mm 4 m/s 716 mmHg 93%
11:00 +13°C° 0.2 mm 4 m/s 716 mmHg 92%
12:00 +13°C° 0.3 mm 4 m/s 715 mmHg 92%
13:00 +13°C° 0.3 mm 3 m/s 715 mmHg 91%
14:00 +14°C° 0.3 mm 3 m/s 715 mmHg 90%
15:00 +13°C° 0.1 mm 4 m/s 715 mmHg 91%
16:00 +13°C° 0.1 mm 4 m/s 715 mmHg 91%
17:00 +13°C° 0.1 mm 5 m/s 715 mmHg 92%
18:00 +13°C° 0.1 mm 5 m/s 715 mmHg 93%
19:00 +12°C° 0.1 mm 5 m/s 715 mmHg 94%
20:00 +12°C° 0.1 mm 5 m/s 716 mmHg 95%
21:00 +12°C° 0 mm 5 m/s 715 mmHg 96%
22:00 +13°C° 0 mm 5 m/s 715 mmHg 96%
23:00 +13°C° 0 mm 6 m/s 715 mmHg 96%

15 Abril, Quinta-feira

Tempo Temperatura Precipitação Vento Pressão Humidade
00:00 +12°C° 0 mm 5 m/s 715 mmHg 96%
01:00 +12°C° 0 mm 4 m/s 715 mmHg 96%
02:00 +12°C° 0 mm 3 m/s 714 mmHg 96%
03:00 +12°C° 0 mm 3 m/s 714 mmHg 97%
04:00 +12°C° 0 mm 3 m/s 715 mmHg 97%
05:00 +12°C° 0 mm 3 m/s 715 mmHg 97%
06:00 +12°C° 0.2 mm 3 m/s 715 mmHg 97%
07:00 +12°C° 0.2 mm 3 m/s 715 mmHg 96%
08:00 +12°C° 0.2 mm 3 m/s 715 mmHg 96%
09:00 +12°C° 1 mm 3 m/s 715 mmHg 96%
10:00 +12°C° 1 mm 3 m/s 714 mmHg 95%
11:00 +12°C° 1 mm 3 m/s 714 mmHg 95%
12:00 +13°C° 0.7 mm 4 m/s 713 mmHg 95%
13:00 +13°C° 0.7 mm 4 m/s 713 mmHg 95%
14:00 +13°C° 0.7 mm 5 m/s 712 mmHg 95%
15:00 +13°C° 0.5 mm 4 m/s 712 mmHg 96%
16:00 +13°C° 0.5 mm 3 m/s 712 mmHg 96%
17:00 +14°C° 0.5 mm 2 m/s 712 mmHg 96%
18:00 +13°C° 0.2 mm 3 m/s 712 mmHg 97%
19:00 +13°C° 0.2 mm 3 m/s 712 mmHg 97%
20:00 +13°C° 0.2 mm 4 m/s 712 mmHg 97%
21:00 +13°C° 0.2 mm 4 m/s 712 mmHg 97%
22:00 +13°C° 0.2 mm 4 m/s 711 mmHg 97%
23:00 +13°C° 0.2 mm 4 m/s 711 mmHg 97%

16 Abril, Sexta-feira

Tempo Temperatura Precipitação Vento Pressão Humidade
00:00 +13°C° 0.5 mm 4 m/s 711 mmHg 97%
01:00 +13°C° 0.5 mm 4 m/s 710 mmHg 97%
02:00 +14°C° 0.5 mm 4 m/s 710 mmHg 97%
03:00 +14°C° 0.1 mm 5 m/s 709 mmHg 97%
04:00 +14°C° 0.1 mm 5 m/s 709 mmHg 97%
05:00 +14°C° 0.1 mm 6 m/s 708 mmHg 97%
06:00 +14°C° 0.1 mm 6 m/s 709 mmHg 96%
07:00 +15°C° 0.1 mm 6 m/s 709 mmHg 95%
08:00 +15°C° 0.1 mm 6 m/s 709 mmHg 94%
09:00 +19°C° 0 mm 6 m/s 709 mmHg 80%
10:00 +21°C° 0 mm 6 m/s 709 mmHg 66%
11:00 +24°C° 0 mm 6 m/s 709 mmHg 52%
12:00 +26°C° 0 mm 6 m/s 708 mmHg 41%
13:00 +27°C° 0 mm 7 m/s 708 mmHg 30%
14:00 +28°C° 0 mm 8 m/s 708 mmHg 18%
15:00 +23°C° 0 mm 10 m/s 709 mmHg 31%
16:00 +18°C° 0 mm 11 m/s 710 mmHg 43%
17:00 +13°C° 0 mm 13 m/s 711 mmHg 56%
18:00 +10°C° 0 mm 13 m/s 712 mmHg 59%
19:00 +8°C° 0 mm 12 m/s 713 mmHg 62%
20:00 +5°C° 0 mm 12 m/s 715 mmHg 65%
21:00 +4°C° 0 mm 11 m/s 715 mmHg 70%
22:00 +3°C° 0 mm 11 m/s 716 mmHg 74%
23:00 +2°C° 0 mm 11 m/s 716 mmHg 78%

17 Abril, Sábado

Tempo Temperatura Precipitação Vento Pressão Humidade
00:00 +2°C° 0 mm 11 m/s 716 mmHg 79%
01:00 +2°C° 0 mm 11 m/s 716 mmHg 80%
02:00 +2°C° 0 mm 11 m/s 716 mmHg 82%
03:00 +2°C° 0 mm 10 m/s 717 mmHg 81%
04:00 +2°C° 0 mm 9 m/s 718 mmHg 81%
05:00 +2°C° 0 mm 8 m/s 719 mmHg 81%
06:00 +3°C° 0 mm 7 m/s 719 mmHg 78%
07:00 +3°C° 0 mm 7 m/s 720 mmHg 76%
08:00 +4°C° 0 mm 7 m/s 721 mmHg 73%
09:00 +5°C° 0 mm 7 m/s 721 mmHg 70%
10:00 +6°C° 0 mm 7 m/s 721 mmHg 66%
11:00 +8°C° 0 mm 7 m/s 721 mmHg 63%
12:00 +9°C° 0 mm 7 m/s 720 mmHg 59%
13:00 +10°C° 0 mm 8 m/s 719 mmHg 55%
14:00 +11°C° 0 mm 9 m/s 719 mmHg 51%
15:00 +10°C° 0 mm 8 m/s 719 mmHg 53%
16:00 +10°C° 0 mm 7 m/s 719 mmHg 55%
17:00 +9°C° 0 mm 6 m/s 720 mmHg 57%
18:00 +9°C° 0 mm 5 m/s 720 mmHg 60%
19:00 +8°C° 0 mm 5 m/s 721 mmHg 64%
20:00 +7°C° 0 mm 4 m/s 721 mmHg 67%
21:00 +7°C° 0 mm 4 m/s 721 mmHg 68%
22:00 +7°C° 0 mm 4 m/s 721 mmHg 68%
23:00 +7°C° 0 mm 4 m/s 721 mmHg 69%
Mostrar mais